FENGYUN 1C DEB

Satellite information

Favourite Embed

Satellite Type and Status

DEBRISIN ORBIT

Key statistics

Satellite FENGYUN 1C DEB at a glance.

Uptime

9609

Days in orbit

Revolutions

≈ 14.2

Per day

Orbit

SSO

Sun Synchronous Orbit

Inclination

98.9

Latest

Satellite identification and parameters

Extended collection of information and parameters for FENGYUN 1C DEB.

Object identification

Identified? True

Debris? True

Object name: FENGYUN 1C DEB

International designator: 1999-025AZD

Object number (NORAD): 30915

Object ID (CCSDS): 30915

Country: PEOPLES REPUBLIC OF CHINA (PRC)

Current information (Y/N): Y

RCS size: SMALL

Orbital parameters

Period: 101.125 minutes

Inclination: 98.9474 deg

SMA: 7190.052 km

Apoapsis: 851.743 km

Periapsis: 772.091 km

RAAN: 314.3962 deg

Eccentricy: 0.00553907

Argument of periapsis: 115.7343 deg

Mean anomaly: 244.9567 deg

Mean motion: 14.23982636 rev/day

Mean motion (dot): 0.00004813 rev/day2

B* drag term: 0.002082384 1/REarth

Two-line elements (TLE)

Creation date: Aug. 28, 2025, 11:13 p.m.

Reference frame: TEME

Reference center: EARTH

Epoch: Aug. 28, 2025, 3:34 a.m. UTC

TLE line 0: 0 FENGYUN 1C DEB

TLE line 1: 1 30915U 99025AZD 25240.14878729 .00004813 00000-0 20824-2 0 9996

TLE line 2: 2 30915 98.9474 314.3962 0055391 115.7343 244.9567 14.23982636949953

Live tracking on map

Real-time ground track for satellite FENGYUN 1C DEB.

In-orbit conjunctions

A list of the most updated potential collisions computed for object FENGYUN 1C DEB.

Target Orbit TCA Probability of collision Miss distance Type
FENGYUN 1C DEB SSO 2025-08-11 21:35:11 0.0001024331 256.0 (m) DEBRIS
COSMOS 1110 LEO 2025-03-26 13:24:07 0.0002446534 203.0 (m) PAYLOAD
CZ-6A DEB LEO 2025-03-05 16:25:36 0.0006167548 362.0 (m) DEBRIS
CZ-6A DEB LEO 2025-02-13 19:17:48 0.0001001062 943.0 (m) DEBRIS
CZ-6A DEB LEO 2025-01-11 20:51:39 0.0001555406 173.0 (m) DEBRIS

Associated space launch

Chinese polar orbiting meteorological satellite

FENGYUN 1C DEB was lifted into orbit during the mission ‘Long March 4B | Feng Yun 1C’, on board a Long March 4B space rocket.

The launch took place on May 10, 1999, 1:33 a.m. from Launch Complex 7.

For more information about the launch, click the button.

Launch to space Long March 4B | Feng Yun 1C
Long March 4B | Feng Yun 1C

Agency: N/A

Status: Launch Successful

Launch date: May 10, 1999, 1:33 a.m. UTC

Rocket: Long March 4B

Launch pad: Launch Complex 7

Location: Taiyuan Satellite Launch Center, People's Republic of China

...

Latest news about this satellite

There are no fresh news available about this satellite. Check back as we update our databases every day.


Newsletter sign-up

Weekly statistics, charts and insights to help you stay on top of the space industry.